SCP
0 0 0 0 0 0 0 0 0 0 0 0 0 0 0 0 0 0 0 0 0 0 0 0 0 0 0 0 0 0 0 0
0 0 0 0 0 0 0 0 0 0 0 0 0 0 0 0 0 0 0 0 0 0 0 0 0 0 0 0 0 0 0 0
0 0 0 0 0 0 0 0 0 0 0 0 0 0 0 0 0 0 0 0 0 0 0 0 0 0 0 0 0 0 0 0
0 0 0 0 0 0 0 0 0 0 0 0 0 0 0 0 0 0 0 0 0 0 0 0 0 0 0 0 0 0 0 0
0 0 0 0 0 0 0 0 0 0 0 0 0 0 0 0 0 0 0 0 0 0 0 0 0 0 0 0 0 0 0 0
0 0 0 0 0 0 0 0 0 0 0 0 0 0 0 0 0 0 0 0 0 0 0 0 0 0 0 0 0 0 0 0
0 0 0 0 0 0 0 0 0 0 0 0 0 0 0 0 0 0 0 0 0 0 0 0 0 0 0 0 0 0 0 0
0 0 0 0 0 0 0 0 0 0 0 0 0 0 0 0 0 0 0 0 0 0 0 0 0 0 0 0 0 0 0 0
0 0 0 0 0 0 0 0 0 0 0 0 0 0 0 0 0 0 0 0 0 0 0 0 0 0 0 0 0 0 0 0
0 0 0 0 0 0 0 0 0 0 0 0 0 0 0 0 0 0 0 0 0 0 0 0 0 0 0 0 0 0 0 0
0 0 0 0 0 0 0 0 0 0 0 0 0 0 0 0 0 0 0 0 0 0 0 0 0 0 0 0 0 0 0 0
0 0 0 0 0 0 0 0 0 0 0 0 0 0 0 0 0 0 0 0 0 0 0 0 0 0 0 0 0 0 0 0
0 0 0 0 0 0 0 0 0 0 0 0 0 0 0 0 0 0 0 0 0 0 0 0 0 0 0 0 0 0 0 0
0 0 0 0 0 0 0 0 0 0 0 0 0 0 0 0 0 0 0 0 0 0 0 0 0 0 0 0 0 0 0 0
0 0 0 0 0 0 0 0 0 0 0 0 0 0 0 0 0 0 0 0 0 0 0 0 0 0 0 0 0 0 0 0
0 0 0 0 0 0 0 0 0 0 0 0 0 0 0 0 0 0 0 0 0 0 0 0 0 0 0 0 0 0 0 0
0 0 0 0 0 0 0 0 0 0 0 0 0 0 0 0 0 0 0 0 0 0 0 0 0 0 0 0 0 0 0 0
0 0 0 0 0 0 0 0 0 0 0 0 0 0 0 0 0 0 0 0 0 0 0 0 0 0 0 0 0 0 0 0
0 0 0 0 0 0 0 0 0 0 0 0 0 0 0 0 0 0 0 0 0 0 0 0 0 0 0 0 0 0 0 0
0 0 0 0 0 0 0 0 0 0 0 0 0 0 0 0 0 0 0 0 0 0 0 0 0 0 0 0 0 0 0 0
Wind_Speed_500mb
57 61 61 61 59 55 49 41 37 35 32 30 29 28 25 20 16 12 10 7 8 12 14 18 21 25 27 29 32 33 37 39
62 63 64 67 66 60 55 50 46 40 36 33 30 28 26 24 20 17 15 14 12 13 14 17 20 23 28 32 35 36 37 40
63 66 70 71 70 65 59 55 48 43 38 35 33 33 32 29 24 22 20 16 14 14 14 17 22 28 34 37 39 41 41 42
63 71 74 74 73 68 65 59 51 46 42 40 40 40 37 32 31 29 25 22 17 15 16 21 27 33 38 42 43 45 45 46
66 73 75 75 74 70 65 62 55 50 47 46 45 43 41 39 38 35 32 28 23 21 22 26 29 34 40 44 47 48 48 49
72 72 69 70 70 65 65 63 56 53 50 49 46 47 49 47 45 42 39 35 32 30 30 31 33 37 41 45 50 52 52 52
70 68 68 63 69 68 66 61 60 56 53 52 52 54 55 49 48 48 46 44 41 40 38 38 40 41 44 46 49 53 56 57
69 75 74 67 64 60 57 61 60 56 55 56 57 56 53 53 54 53 51 52 51 49 47 45 45 46 47 49 52 55 59 58
58 60 60 55 52 50 53 54 51 49 55 56 57 55 55 57 59 58 57 58 58 56 52 51 49 49 52 53 55 58 60 60
45 45 45 46 46 46 44 42 39 44 45 49 52 55 58 61 61 60 62 63 63 59 56 54 51 53 55 56 58 60 61 60
40 41 42 43 40 37 35 35 39 38 37 38 44 51 55 57 59 62 65 65 64 62 58 57 56 56 57 57 60 63 62 60
38 40 39 37 34 35 38 40 35 30 33 38 43 46 48 51 55 61 64 65 63 60 59 60 60 58 59 58 60 61 61 61
38 37 37 36 36 40 43 37 33 34 39 42 42 42 43 46 52 57 59 60 61 61 62 62 62 62 61 61 61 60 58 59
31 35 41 36 35 43 44 44 40 38 41 45 48 50 51 48 51 55 57 60 61 62 63 63 64 64 63 62 60 58 50 53
28 37 45 44 40 43 50 52 48 45 48 51 55 59 59 55 55 59 63 63 62 63 64 64 64 63 61 59 53 47 44 44
30 40 49 50 46 47 57 64 62 59 56 59 64 65 64 61 60 62 65 65 64 65 65 65 67 63 62 55 43 46 42 46
35 41 48 54 54 55 59 65 70 72 71 69 68 68 66 64 62 63 64 65 65 67 69 68 70 67 51 39 42 37 48 61
41 42 49 58 64 64 64 64 65 67 69 67 66 64 63 61 61 62 62 65 69 71 71 69 67 60 44 42 39 42 57 59
47 50 57 63 65 66 64 63 61 59 61 58 58 56 56 56 56 59 62 66 70 69 68 66 65 62 57 40 40 52 58 52
51 57 60 63 63 59 56 54 52 51 52 53 54 53 52 53 56 60 64 68 72 72 69 64 62 64 60 50 54 58 54 49
Wind_Direction_500mb
192 194 195 194 193 193 193 196 197 200 207 208 208 205 203 202 209 218 232 255 283 296 303 312 317 318 316 315 313 311 308 308
196 199 200 201 201 201 202 204 205 210 216 215 211 212 212 218 221 227 236 247 266 284 298 311 316 320 323 320 316 312 308 308
199 202 205 206 206 207 209 214 214 216 218 218 219 220 223 226 228 233 239 247 257 273 298 316 325 328 327 321 317 312 309 309
199 206 209 210 211 211 215 218 219 221 222 225 224 225 227 231 234 234 237 245 256 273 298 312 319 321 322 320 314 311 308 308
201 207 212 213 214 213 217 221 223 226 226 228 229 229 232 234 234 236 239 245 254 272 287 295 304 311 317 316 312 311 308 308
205 205 209 212 216 216 220 225 230 231 230 235 233 233 234 236 237 240 243 249 259 269 275 285 294 304 310 311 309 308 307 306
207 205 204 209 217 221 223 230 235 238 240 238 236 236 238 241 243 246 248 255 263 268 276 283 289 295 301 304 304 305 305 304
212 214 216 216 223 225 229 235 240 244 243 241 241 242 242 244 247 251 256 260 265 270 275 280 285 292 298 302 304 304 302 300
216 216 219 219 228 228 230 236 242 245 245 243 241 243 243 246 251 255 260 264 267 270 275 280 285 292 298 301 303 300 299 298
207 211 216 218 220 221 223 231 240 246 248 243 240 243 246 250 256 261 263 265 269 271 274 278 282 290 295 299 300 297 297 298
207 209 210 208 212 220 229 238 244 247 247 242 242 246 251 258 262 263 264 265 266 269 273 276 279 286 292 299 298 296 297 299
197 201 209 215 222 232 234 233 236 235 240 243 247 251 256 259 260 261 262 263 265 268 270 272 278 287 293 294 293 294 295 296
200 208 213 221 228 229 227 225 229 244 246 246 248 251 258 263 263 261 259 260 263 266 269 275 281 287 291 292 291 292 292 294
213 219 219 224 234 233 231 229 240 245 247 247 249 252 258 264 264 258 258 260 263 266 272 277 282 288 290 289 289 291 288 291
223 226 228 227 237 240 237 240 245 248 250 252 254 256 258 259 262 259 259 261 264 268 273 277 281 284 286 287 287 286 292 294
235 236 235 232 241 245 246 247 250 252 254 257 257 256 255 257 261 264 263 263 267 272 275 277 281 284 283 284 286 289 296 284
243 245 242 239 244 248 250 254 256 258 259 261 257 255 253 256 260 263 265 266 268 271 274 277 279 280 278 269 268 278 271 273
251 252 250 248 248 251 254 256 258 260 260 258 255 253 253 256 261 265 268 269 271 274 277 278 279 277 268 263 271 265 268 277
251 249 248 247 250 255 257 260 262 260 256 252 253 253 257 261 264 266 269 272 277 277 277 277 277 274 272 267 261 262 271 277
251 251 250 248 250 252 256 261 260 255 251 250 253 257 261 265 270 273 275 277 278 278 277 278 276 275 273 270 261 265 270 274
Wind_Speed_850mb
57 61 61 61 59 55 49 41 37 35 32 30 29 28 25 20 16 12 10 7 8 12 14 18 21 25 27 29 32 33 37 39
62 63 64 67 66 60 55 50 46 40 36 33 30 28 26 24 20 17 15 14 12 13 14 17 20 23 28 32 35 36 37 40
63 66 70 71 70 65 59 55 48 43 38 35 33 33 32 29 24 22 20 16 14 14 14 17 22 28 34 37 39 41 41 42
63 71 74 74 73 68 65 59 51 46 42 40 40 40 37 32 31 29 25 22 17 15 16 21 27 33 38 42 43 45 45 46
66 73 75 75 74 70 65 62 55 50 47 46 45 43 41 39 38 35 32 28 23 21 22 26 29 34 40 44 47 48 48 49
72 72 69 70 70 65 65 63 56 53 50 49 46 47 49 47 45 42 39 35 32 30 30 31 33 37 41 45 50 52 52 52
70 68 68 63 69 68 66 61 60 56 53 52 52 54 55 49 48 48 46 44 41 40 38 38 40 41 44 46 49 53 56 57
69 75 74 67 64 60 57 61 60 56 55 56 57 56 53 53 54 53 51 52 51 49 47 45 45 46 47 49 52 55 59 58
58 60 60 55 52 50 53 54 51 49 55 56 57 55 55 57 59 58 57 58 58 56 52 51 49 49 52 53 55 58 60 60
45 45 45 46 46 46 44 42 39 44 45 49 52 55 58 61 61 60 62 63 63 59 56 54 51 53 55 56 58 60 61 60
40 41 42 43 40 37 35 35 39 38 37 38 44 51 55 57 59 62 65 65 64 62 58 57 56 56 57 57 60 63 62 60
38 40 39 37 34 35 38 40 35 30 33 38 43 46 48 51 55 61 64 65 63 60 59 60 60 58 59 58 60 61 61 61
38 37 37 36 36 40 43 37 33 34 39 42 42 42 43 46 52 57 59 60 61 61 62 62 62 62 61 61 61 60 58 59
31 35 41 36 35 43 44 44 40 38 41 45 48 50 51 48 51 55 57 60 61 62 63 63 64 64 63 62 60 58 50 53
28 37 45 44 40 43 50 52 48 45 48 51 55 59 59 55 55 59 63 63 62 63 64 64 64 63 61 59 53 47 44 44
30 40 49 50 46 47 57 64 62 59 56 59 64 65 64 61 60 62 65 65 64 65 65 65 67 63 62 55 43 46 42 46
35 41 48 54 54 55 59 65 70 72 71 69 68 68 66 64 62 63 64 65 65 67 69 68 70 67 51 39 42 37 48 61
41 42 49 58 64 64 64 64 65 67 69 67 66 64 63 61 61 62 62 65 69 71 71 69 67 60 44 42 39 42 57 59
47 50 57 63 65 66 64 63 61 59 61 58 58 56 56 56 56 59 62 66 70 69 68 66 65 62 57 40 40 52 58 52
51 57 60 63 63 59 56 54 52 51 52 53 54 53 52 53 56 60 64 68 72 72 69 64 62 64 60 50 54 58 54 49
Wind_Direction_850mb
192 194 195 194 193 193 193 196 197 200 207 208 208 205 203 202 209 218 232 255 283 296 303 312 317 318 316 315 313 311 308 308
196 199 200 201 201 201 202 204 205 210 216 215 211 212 212 218 221 227 236 247 266 284 298 311 316 320 323 320 316 312 308 308
199 202 205 206 206 207 209 214 214 216 218 218 219 220 223 226 228 233 239 247 257 273 298 316 325 328 327 321 317 312 309 309
199 206 209 210 211 211 215 218 219 221 222 225 224 225 227 231 234 234 237 245 256 273 298 312 319 321 322 320 314 311 308 308
201 207 212 213 214 213 217 221 223 226 226 228 229 229 232 234 234 236 239 245 254 272 287 295 304 311 317 316 312 311 308 308
205 205 209 212 216 216 220 225 230 231 230 235 233 233 234 236 237 240 243 249 259 269 275 285 294 304 310 311 309 308 307 306
207 205 204 209 217 221 223 230 235 238 240 238 236 236 238 241 243 246 248 255 263 268 276 283 289 295 301 304 304 305 305 304
212 214 216 216 223 225 229 235 240 244 243 241 241 242 242 244 247 251 256 260 265 270 275 280 285 292 298 302 304 304 302 300
216 216 219 219 228 228 230 236 242 245 245 243 241 243 243 246 251 255 260 264 267 270 275 280 285 292 298 301 303 300 299 298
207 211 216 218 220 221 223 231 240 246 248 243 240 243 246 250 256 261 263 265 269 271 274 278 282 290 295 299 300 297 297 298
207 209 210 208 212 220 229 238 244 247 247 242 242 246 251 258 262 263 264 265 266 269 273 276 279 286 292 299 298 296 297 299
197 201 209 215 222 232 234 233 236 235 240 243 247 251 256 259 260 261 262 263 265 268 270 272 278 287 293 294 293 294 295 296
200 208 213 221 228 229 227 225 229 244 246 246 248 251 258 263 263 261 259 260 263 266 269 275 281 287 291 292 291 292 292 294
213 219 219 224 234 233 231 229 240 245 247 247 249 252 258 264 264 258 258 260 263 266 272 277 282 288 290 289 289 291 288 291
223 226 228 227 237 240 237 240 245 248 250 252 254 256 258 259 262 259 259 261 264 268 273 277 281 284 286 287 287 286 292 294
235 236 235 232 241 245 246 247 250 252 254 257 257 256 255 257 261 264 263 263 267 272 275 277 281 284 283 284 286 289 296 284
243 245 242 239 244 248 250 254 256 258 259 261 257 255 253 256 260 263 265 266 268 271 274 277 279 280 278 269 268 278 271 273
251 252 250 248 248 251 254 256 258 260 260 258 255 253 253 256 261 265 268 269 271 274 277 278 279 277 268 263 271 265 268 277
251 249 248 247 250 255 257 260 262 260 256 252 253 253 257 261 264 266 269 272 277 277 277 277 277 274 272 267 261 262 271 277
251 251 250 248 250 252 256 261 260 255 251 250 253 257 261 265 270 273 275 277 278 278 277 278 276 275 273 270 261 265 270 274